Погода в Кусаке

Россия / Алтайский край     53°13′21″N   78°56′08″E
темп.,
°C
ветер,
м/с
пор.,
м/с
влажн.,
%
обл.,
%
осадки,
мм/ч
давл.,
гПа
погр.,
м
9 мая, вс
вс901:00+16ююз223485 0.0 101811
04:00+14ююз2235100 0.0 101710
07:00+14юз113784 0.0 101710
10:00+19ссз112688 0.0 1016312
13:00+23ссв22228 0.0 10152130
16:00+24ссв6326100 0.0 10142572
19:00+20св8835100 0.0 10141230
22:00+15св8144274 0.0 1016652
10 мая, пн
пн1001:00+11всв9154393 0.0 1017645
04:00+9в81547100 0.0 1017721
07:00+8в81549100 0.0 1018724
10:00+10в91343100 0.0 1018925
13:00+14в81135100 0.0 10181406
16:00+17всв9103099 0.0 10161924
19:00+16св8103370 0.0 10161985
22:00+13св7144386 0.0 1017520
11 мая, вт
вт1101:00+10ссв6135189 0.0 1016381
04:00+9ссв71257100 0.0 1017358
07:00+7ссв611660 0.0 1018322
10:00+13ссв69490 0.0 1019769
13:00+16ссв78345 0.0 10182132
16:00+18ссв7828100 0.0 10182878
19:00+18ссв893173 0.0 10182428
22:00+13ссв511505 0.0 1021438
12 мая, ср
ср1201:00+11с410600 0.0 1021291
04:00+9с49662 0.0 1022210
07:00+9ссз366614 0.0 1022175
10:00+13с45454 0.0 10221010
13:00+17с56315 0.0 10221978
16:00+18ссз662584 0.0 10212123
19:00+18с562496 0.0 10211889
22:00+14с2236100 0.0 102115
13 мая, чт
чт1301:00+13ююв1135100 0.0 102011
04:00+13юз2336100 0.0 102055
07:00+11зсз3578100 0.1 1020153
10:00+14с1167100 0.1 1020138
13:00+18с134469 0.1 10191766
16:00+17сз434997 0.0 1019973
19:00+18сз545079 0.1 10191234
22:00+14сз47576 0.0 1020170